Location: Castillon
(43.0896°N, 0.2156°E)
Time: 04:18:35
(UTC+00:00)

Cosmos 1980 Rocket - Pass Details

Date: 17 October 2021
Orbit: 828 x 851 km, 71.0° (Epoch: 07 December)

Event Time Altitude Azimuth Distance (km) Brightness Sun altitude
Rises 20:28:32 0° 266° (W) 3,393 6.1 -35.9°
Reaches altitude 10° 20:32:43 10° 295° (WNW) 2,468 5.4 -36.6°
Maximum altitude 20:34:57 12° 319° (NW) 2,313 5.1 -37.0°
Drops below altitude 10° 20:37:12 10° 343° (NNW) 2,478 5.0 -37.3°
Sets 20:41:25 0° 12° (NNE) 3,422 5.5 -38.0°
